Theta_e
345 344 343 339 339 336 338 335 333 334 336 336 335 336 337 335 333 329 332 334 335 335 338 340 339 338 340 342 342 342 341 339 339 336 336 334 334 334 333 333 332 331 330
346 344 341 337 337 336 336 333 333 335 336 336 336 335 334 333 329 329 331 332 334 334 334 335 338 338 339 341 340 341 339 339 339 338 335 334 334 334 334 332 331 330 329
346 345 341 338 336 335 336 333 335 334 335 335 334 333 332 332 330 328 328 329 331 332 333 334 333 334 338 339 339 341 340 340 340 339 334 333 333 332 332 331 330 329 328
345 344 341 340 339 335 337 334 334 335 335 335 333 332 332 331 330 327 323 324 328 331 331 332 332 330 333 336 338 339 339 339 339 336 334 331 333 332 330 330 330 328 326
342 341 338 338 340 339 338 337 335 335 334 333 332 331 331 329 330 328 324 322 323 325 328 326 327 329 328 328 331 332 335 337 335 333 333 331 332 331 330 329 329 327 324
340 339 338 340 341 341 341 339 337 337 336 333 332 333 330 328 329 329 327 323 323 322 323 323 325 326 326 326 328 332 333 333 333 332 332 332 332 331 330 328 327 324 322
344 337 339 342 342 341 339 339 336 336 337 335 333 333 332 330 328 328 326 325 324 325 325 323 323 323 323 322 323 325 328 330 331 331 331 330 330 328 326 326 323 323 323
345 341 340 343 342 338 340 339 337 334 335 337 336 336 335 333 327 328 327 326 325 326 326 325 322 321 321 321 321 321 322 325 327 326 326 325 324 323 323 323 323 323 323
345 344 341 340 342 339 339 339 338 337 333 336 336 336 336 334 327 327 327 327 326 326 326 325 323 322 321 320 319 318 318 320 322 322 321 318 314 320 321 321 319 320 320
343 342 342 340 339 335 333 334 337 336 334 334 334 335 335 335 329 326 327 327 327 327 325 323 323 322 321 320 317 318 317 314 312 311 311 310 308 308 309 311 313 318 318
342 341 339 339 336 333 333 335 332 334 333 332 332 332 335 334 333 328 326 328 329 329 327 324 323 323 322 322 321 320 316 314 313 313 313 312 312 311 311 309 306 307 313
337 336 338 336 332 332 332 336 333 330 334 332 331 334 334 335 334 332 327 327 329 329 328 326 324 323 322 321 321 321 319 315 314 314 315 315 315 312 310 308 307 308 312
337 338 337 335 332 332 332 335 336 334 329 330 330 331 332 333 335 334 329 326 327 329 329 327 325 325 323 320 320 316 317 318 317 317 318 318 317 313 309 309 308 308 309
341 338 338 337 336 336 336 336 336 337 336 334 333 334 334 334 336 336 334 330 326 328 329 327 325 325 323 318 314 314 310 312 314 315 316 316 314 311 310 309 309 308 308
334 331 331 333 335 335 333 333 333 334 334 336 337 336 336 337 337 336 335 334 330 326 327 326 325 325 324 321 315 312 311 312 312 313 314 313 311 310 309 309 309 309 308
327 325 323 323 323 326 326 328 329 329 328 332 334 336 335 336 336 336 336 333 331 329 326 326 326 325 325 324 317 313 312 312 311 311 311 311 310 310 309 309 309 308 308
325 325 324 323 324 325 325 325 325 325 325 326 329 331 332 334 334 334 335 333 329 328 328 327 326 326 325 324 318 314 311 311 311 310 310 310 310 310 310 309 309 308 308
327 326 320 324 324 323 326 325 325 325 324 324 325 327 328 332 333 333 333 333 330 327 326 326 325 324 325 324 320 314 312 312 312 311 311 310 310 310 309 309 309 309 309
328 329 328 327 327 325 326 326 326 324 324 325 325 326 327 330 331 331 331 331 331 329 329 327 325 324 323 322 322 315 314 313 314 313 311 311 310 310 309 309 309 309 309
329 330 330 329 329 328 325 326 326 325 326 326 327 327 326 326 327 328 330 329 330 330 329 327 328 325 324 322 320 316 315 317 317 316 315 311 311 310 310 310 309 309 309
326 327 329 329 328 329 326 324 325 325 325 326 326 323 320 325 328 327 327 327 324 324 325 327 327 326 325 323 321 316 316 318 317 313 312 312 311 311 310 310 309 309 309
325 325 326 328 328 328 327 327 326 325 325 324 324 321 318 317 322 325 324 318 314 314 320 321 322 324 323 322 322 321 317 318 318 313 314 312 312 312 310 310 310 310 310
323 324 325 325 326 327 326 326 326 326 325 324 321 317 316 316 320 322 323 318 312 313 313 315 316 318 320 320 319 320 318 317 317 312 313 312 312 312 311 311 311 310 311
322 322 323 323 323 324 325 325 324 324 324 322 320 319 317 316 317 317 318 320 314 315 315 314 316 318 318 317 317 317 317 316 316 314 313 313 313 312 311 312 312 312 312
316 317 317 318 321 323 323 324 323 324 323 321 320 319 317 316 317 317 320 321 319 314 315 315 316 317 317 315 314 314 316 316 316 314 313 313 313 313 312 312 312 311 310
318 318 319 321 323 324 322 322 322 320 320 319 318 318 318 316 316 316 317 319 315 314 315 315 315 315 315 314 314 314 314 314 314 314 313 312 312 312 312 311 311 311 310
Wind_Speed
6 6 7 8 7 7 6 3 3 5 8 6 4 7 5 3 1 0 2 4 4 5 5 3 4 5 6 10 12 15 18 13 13 17 14 11 8 7 6 5 4 4 4
6 7 8 8 8 8 7 5 5 6 7 6 6 5 4 2 0 3 3 4 4 4 6 5 4 4 6 8 11 18 15 13 12 16 18 15 12 10 7 6 5 5 5
7 9 11 10 8 9 8 8 8 7 7 6 6 4 4 2 2 3 4 4 5 4 4 5 4 4 5 7 9 14 15 14 13 14 19 18 15 11 9 8 7 6 5
8 11 13 12 9 9 8 8 8 7 8 9 7 6 5 3 3 2 4 4 5 5 6 6 6 6 7 7 8 9 10 12 12 14 18 19 16 14 10 9 9 9 6
9 13 13 12 10 10 10 9 10 9 7 9 9 8 5 3 3 2 3 4 4 5 6 7 7 8 8 8 7 6 7 11 14 14 16 17 16 14 12 9 10 8 6
9 12 13 14 13 12 11 11 10 10 9 9 10 8 6 3 5 3 3 4 4 5 5 6 7 8 8 8 8 10 9 6 12 17 16 14 14 12 11 10 10 10 8
5 11 12 13 16 16 14 13 12 12 14 12 11 10 7 5 7 6 5 5 5 4 5 6 6 8 8 8 9 10 10 10 8 7 10 11 10 9 10 11 11 9 7
9 9 15 18 17 14 15 16 19 21 16 18 18 13 10 8 10 8 7 8 7 7 5 5 4 6 8 7 7 8 9 10 10 10 9 9 9 8 9 9 10 10 9
9 10 14 15 15 13 17 18 20 24 23 21 19 17 14 10 12 11 10 10 9 9 8 6 5 4 5 6 5 6 7 7 8 8 8 8 8 9 9 8 9 11 11
7 9 11 14 8 5 3 6 8 12 15 17 21 20 16 13 13 14 13 11 11 10 9 9 8 7 6 5 5 6 6 7 8 9 8 8 8 7 6 6 7 11 11
11 12 10 6 5 6 2 7 9 10 10 10 20 17 20 18 15 16 16 14 12 10 10 10 10 9 8 8 7 6 5 9 12 12 10 9 8 5 2 1 5 9 9
10 10 9 8 7 9 7 5 4 3 7 7 6 9 10 17 17 16 18 17 15 14 10 9 12 11 11 10 10 10 8 12 13 13 12 10 8 5 2 2 4 6 8
10 12 11 10 9 11 11 10 10 10 5 4 6 5 3 11 19 18 18 20 20 18 14 11 12 12 13 14 13 12 13 14 17 17 15 13 11 9 8 5 5 7 7
9 10 9 10 13 15 17 18 18 17 18 20 19 19 18 17 16 21 23 23 23 20 19 17 17 16 14 15 15 14 14 14 14 17 16 14 15 13 11 8 5 8 8
6 3 3 7 9 9 10 9 10 14 19 22 20 22 23 25 24 25 21 24 22 23 22 22 22 22 19 18 17 16 16 15 13 13 15 16 15 14 13 12 10 10 10
8 8 7 7 7 8 9 8 6 7 10 18 24 25 22 19 20 24 25 23 20 24 26 26 24 23 22 21 21 20 20 18 17 17 16 15 16 17 14 15 13 11 11
11 10 9 9 7 8 8 8 10 10 11 10 14 18 23 23 24 19 25 26 22 23 28 25 24 23 23 23 25 24 23 19 16 17 16 15 15 16 16 15 16 13 14
9 11 10 9 11 10 9 7 8 11 12 12 12 15 17 18 19 19 20 28 28 27 27 27 23 21 22 24 27 28 26 23 22 20 18 17 17 16 19 17 17 16 16
7 9 8 8 11 14 12 12 12 11 11 11 12 12 13 14 14 15 19 26 30 29 30 28 25 24 21 22 26 30 29 27 25 25 24 22 22 21 20 19 18 19 15
9 10 13 13 12 16 15 15 14 15 16 15 15 11 12 14 15 13 17 18 22 29 33 32 25 28 24 24 25 30 31 30 30 31 32 29 25 25 24 20 19 22 19
12 14 18 17 16 15 16 16 16 16 17 16 18 15 15 17 16 15 15 16 17 20 24 30 33 32 29 26 26 30 32 31 31 31 29 32 28 27 26 26 24 25 24
19 17 17 19 19 19 19 18 18 18 17 18 19 17 15 18 19 18 16 14 16 19 22 25 29 29 26 29 31 34 35 32 32 29 31 34 31 27 27 27 30 30 29
15 15 16 16 18 21 22 21 21 20 18 17 16 17 15 16 17 16 18 16 16 15 15 18 22 24 26 26 25 28 34 32 32 31 31 32 32 31 32 31 30 35 29
21 19 20 18 15 15 16 18 19 19 18 15 15 16 17 17 19 18 19 20 18 16 18 17 11 18 18 21 23 27 32 31 27 27 26 30 35 31 31 30 32 31 28
16 13 14 19 16 13 15 14 13 13 15 16 16 16 16 17 17 19 18 20 21 23 21 18 19 22 25 21 16 16 19 27 30 32 32 31 36 36 34 30 29 28 27
5 7 7 6 7 9 9 8 7 9 11 12 14 16 17 15 15 17 15 13 17 20 23 25 25 21 25 24 22 21 25 28 33 33 31 25 20 18 22 24 27 29 27
Wind_Direction
250 225 213 217 229 234 233 231 193 154 150 165 199 209 205 220 271 255 222 228 231 213 189 157 164 172 184 196 195 202 211 221 217 192 195 189 189 180 170 183 163 133 116
231 222 209 200 230 225 227 220 208 181 184 192 210 212 203 165 172 149 187 207 190 175 177 167 164 151 173 179 190 195 207 210 217 198 192 189 192 191 191 180 162 138 124
220 210 208 199 210 212 227 214 206 193 197 203 231 229 217 183 147 150 162 172 163 156 134 133 139 146 167 169 178 197 208 217 221 213 190 192 192 190 184 180 168 161 164
222 211 204 210 219 212 227 221 221 216 221 223 226 232 228 212 217 138 128 143 154 150 131 126 120 120 141 149 166 187 203 209 196 190 187 190 193 194 192 186 182 174 170
214 203 207 221 219 215 223 232 226 224 221 223 221 209 215 222 245 214 151 144 140 144 144 137 132 118 116 126 130 150 173 181 174 182 183 192 196 197 190 191 184 190 186
215 205 214 217 222 224 227 235 242 236 227 228 226 220 219 229 232 218 199 184 160 159 151 143 137 127 121 123 133 143 133 154 174 179 186 192 196 193 196 193 186 185 183
240 224 228 234 252 248 244 226 229 235 243 235 229 222 228 244 224 222 216 207 192 189 170 150 148 145 134 135 134 134 141 144 140 160 179 185 196 198 200 194 186 182 183
239 237 236 249 278 268 257 247 238 235 227 235 227 223 230 243 224 223 221 221 217 210 187 175 157 158 145 140 138 138 140 142 149 154 161 175 178 183 182 182 195 208 208
239 258 254 256 271 269 278 280 279 250 230 237 250 223 229 243 228 224 222 221 223 222 216 216 200 195 172 157 155 153 151 160 166 173 179 189 193 196 197 200 208 212 205
248 255 260 267 268 278 351 341 289 265 257 255 239 223 223 234 236 228 225 225 227 227 220 214 208 206 206 194 178 172 171 179 180 175 173 166 156 155 163 198 211 223 228
253 262 250 211 215 235 6 352 350 278 256 253 261 257 240 217 229 234 233 229 229 235 231 226 223 215 211 207 193 189 193 189 175 167 166 163 160 159 140 198 203 204 225
244 221 211 214 238 251 265 286 287 19 241 213 296 248 245 225 222 232 237 237 234 235 235 239 232 224 219 215 213 206 205 204 199 197 197 203 206 215 213 142 139 167 203
228 227 223 232 239 242 262 274 262 240 206 183 174 211 272 256 232 229 229 239 243 238 237 242 232 232 234 228 220 222 221 220 219 222 226 229 234 216 212 193 198 195 179
219 239 242 247 252 258 262 264 267 256 247 246 250 256 260 250 243 244 239 227 235 237 230 234 238 238 234 228 228 232 230 222 230 234 239 237 201 209 202 202 212 213 214
205 233 279 279 277 277 275 276 268 265 257 252 256 258 263 263 259 252 259 239 233 233 233 236 237 234 233 231 229 226 216 214 216 210 208 208 213 211 205 203 207 211 214
74 60 39 7 326 295 288 286 280 293 299 260 255 257 260 262 267 265 247 234 234 233 232 237 238 238 240 237 230 226 219 223 224 215 217 223 221 217 213 209 214 214 219
55 43 35 22 353 332 325 301 297 302 309 315 276 270 266 264 261 264 247 230 224 227 232 236 242 242 241 235 229 227 221 223 223 223 229 235 227 222 215 226 218 215 208
42 38 36 13 356 333 322 314 307 315 314 303 297 279 272 265 261 255 243 228 222 225 228 232 233 237 240 237 228 222 217 221 227 229 230 233 234 231 221 218 219 224 229
352 352 335 335 332 322 309 302 298 293 297 306 302 296 289 273 262 258 247 229 230 231 238 235 234 236 240 240 233 222 220 224 231 237 237 235 234 228 226 228 239 229 236
298 299 300 296 305 317 306 303 302 305 292 290 296 304 293 282 277 270 263 253 253 254 251 242 244 243 247 240 237 227 226 231 238 241 240 234 236 232 229 230 229 228 237
294 289 277 274 281 293 305 299 296 308 300 289 292 307 299 284 282 276 265 261 262 261 264 258 254 257 259 247 238 230 229 240 241 235 240 232 230 231 233 231 227 233 242
289 287 279 274 274 276 282 293 294 295 302 295 297 301 292 284 276 275 264 261 273 274 259 254 257 264 257 250 253 240 231 244 243 231 244 234 233 236 231 233 231 236 247
287 286 283 279 277 278 278 280 286 288 301 302 304 305 301 291 281 273 257 256 267 260 261 259 258 259 254 246 237 231 231 247 250 238 247 240 239 243 237 238 244 241 255
279 279 282 284 286 290 284 285 289 284 289 297 303 303 303 303 299 284 265 252 252 248 273 265 256 267 247 235 237 240 243 253 253 231 240 244 245 246 240 251 257 249 249
276 285 289 281 278 286 283 289 295 289 285 282 291 301 306 301 296 294 280 261 251 251 255 247 247 248 246 239 241 258 254 245 232 227 241 245 246 244 242 249 245 242 246
349 310 314 310 279 267 280 287 274 275 288 294 299 304 301 295 297 299 291 260 261 264 270 275 273 275 261 244 245 250 262 249 242 238 237 237 234 249 257 245 242 252 253